Location: Igri�s
(42.2144°N, 0.4320°W)
Time: 17:13:20
(UTC+00:00)

Cosmos 389 Rocket - Pass Details

Date: 13 August 2020
Orbit: 443 x 475 km, 81.1° (Epoch: 19 September)

Event Time Altitude Azimuth Distance (km) Brightness Sun altitude
Rises 19:42:20 0° 350° (N) 2,459 6.7 -7.2°
Reaches altitude 10° 19:44:24 10° 351° (N) 1,587 5.7 -7.5°
Maximum altitude 19:47:52 86° 80° (E) 459 2.4 -8.1°
Drops below altitude 10° 19:51:20 10° 170° (S) 1,589 4.8 -8.7°
Enters shadow 19:53:11 - 171° (S) 2,370 5.7 -9.0°
